Location: *
(28.2408°N, 53.4600°E)
Time: 19:58:50
(UTC+00:00)

deb Centaur AC-2 - Pass Details

Date: 22 September 2019
Orbit: 585 x 1364 km, 30.0° (Epoch: 12 October)

Event Time Altitude Azimuth Distance (km) Brightness Sun altitude
Rises 16:14:25 0° 281° (W) 2,830 8.8 -25.0°
Reaches altitude 10° 16:16:44 10° 281° (W) 1,901 7.6 -25.5°
Enters shadow 16:20:16 60° 276° (W) 670 4.4 -26.3°
